Temp
78 79 80 80 80 79 79 79 79 79 79 79 79 79 79 79 80 80 80 80 80 81 81 81 81 81 81 81 80 80 80 80 80 80 80 80 79 79 79 78 78 76 77
80 79 80 80 80 80 80 79 79 79 79 79 79 79 79 79 79 80 80 80 80 81 81 81 81 81 81 81 80 80 80 80 80 80 80 80 80 79 79 79 77 75 77
79 79 80 80 80 80 79 79 79 78 79 79 79 79 79 79 79 79 79 79 80 81 81 81 81 81 81 81 80 80 80 79 79 80 81 75 76 80 79 78 78 77 77
80 78 79 79 79 80 79 79 79 79 79 79 79 79 79 79 79 79 79 80 80 81 81 81 81 81 81 81 80 80 80 79 79 80 76 76 78 80 80 79 78 77 76
78 78 78 79 79 80 80 79 79 79 79 79 79 79 79 79 79 79 79 79 80 81 81 81 81 80 80 80 80 79 79 79 80 80 74 74 77 79 79 79 78 77 77
78 77 79 79 79 79 79 79 79 79 79 79 79 79 79 79 78 78 79 79 79 80 81 81 80 80 80 80 79 79 79 79 80 76 75 75 75 79 79 79 78 77 77
76 76 77 79 79 79 79 79 79 79 79 78 79 79 79 79 78 78 78 79 79 80 80 80 80 79 79 79 79 78 78 79 76 72 72 74 76 77 79 79 78 78 77
76 76 76 79 78 78 79 79 78 78 78 78 78 78 78 78 78 78 78 79 79 79 79 79 79 78 78 78 78 78 78 79 78 72 72 72 75 77 79 79 78 78 77
78 77 75 75 77 79 78 78 78 78 78 78 78 78 78 78 78 78 78 78 78 78 78 79 78 78 78 77 78 78 78 79 72 70 74 73 76 78 79 79 78 78 78
73 72 70 71 72 74 74 78 78 78 78 78 78 78 78 78 78 78 77 77 78 78 78 78 78 78 77 77 77 77 78 79 71 68 70 72 77 79 80 79 79 78 77
73 68 68 69 68 71 75 77 78 79 79 78 77 78 76 74 74 76 77 77 78 78 78 78 78 77 77 77 77 77 78 71 68 69 69 74 77 79 80 79 79 78 77
70 70 68 70 70 72 78 72 72 73 73 73 73 73 73 73 72 76 76 78 78 78 78 78 78 77 77 74 72 77 75 70 68 71 70 76 77 79 80 79 79 78 77
65 68 68 68 68 68 68 68 68 68 68 69 70 71 70 73 71 72 72 72 73 76 75 76 75 75 74 74 72 70 71 68 70 72 75 77 77 79 80 80 79 78 77
68 67 68 67 67 67 68 67 66 67 66 66 68 69 69 68 69 69 69 71 69 73 73 73 74 74 73 74 73 72 71 72 72 72 72 76 77 79 80 81 79 78 77
66 66 67 66 65 66 65 65 65 65 65 65 65 67 69 68 68 68 69 70 71 70 72 70 74 74 73 73 73 73 73 73 73 74 72 75 76 77 79 81 80 79 78
65 64 65 65 64 64 63 63 63 63 65 65 65 67 68 66 66 66 66 68 70 70 70 71 73 73 72 71 70 71 74 74 74 74 74 72 76 77 78 80 80 79 78
66 66 65 64 63 62 62 62 62 63 65 64 64 66 67 66 64 64 64 64 67 68 67 69 69 69 69 70 70 73 74 74 74 75 74 74 73 77 78 78 79 79 79
66 67 67 71 65 63 61 61 62 61 61 62 63 63 66 67 66 63 64 65 67 67 67 67 69 69 70 69 69 70 73 74 74 75 76 75 74 76 76 77 77 78 78
66 66 65 65 65 64 63 62 61 62 61 61 61 62 65 66 68 63 62 64 64 63 65 68 69 68 68 67 68 70 69 69 71 77 75 74 73 74 73 75 76 77 77
65 64 64 63 63 62 61 61 61 61 62 61 61 61 64 63 67 63 62 61 62 62 62 64 66 68 67 70 69 70 68 68 67 67 72 75 72 72 72 71 73 76 76
65 63 63 62 62 60 59 59 58 59 59 60 61 63 63 62 64 61 60 60 60 59 61 63 64 65 65 67 63 66 65 67 67 70 72 68 70 71 68 70 71 73 75
65 63 63 61 61 60 59 59 58 58 59 59 60 61 62 62 62 62 60 59 58 58 59 60 61 61 63 64 63 59 61 66 65 66 65 68 68 69 67 68 68 70 72
64 65 63 61 61 60 60 59 58 57 56 56 57 58 60 62 62 60 59 58 58 57 57 58 59 60 61 63 63 61 57 57 59 63 65 65 65 63 65 66 68 69 70
66 64 62 61 60 61 60 58 56 54 52 54 54 56 57 59 61 62 61 59 57 57 56 58 61 59 61 61 62 64 62 62 58 60 63 63 65 65 65 67 67 68 68
65 62 60 59 59 60 59 57 54 53 53 53 53 53 56 56 58 60 61 59 56 55 57 56 56 55 57 58 61 61 61 60 60 59 61 63 62 61 63 63 64 66 65
61 60 59 60 59 57 56 55 53 52 51 50 54 53 54 56 57 56 57 56 56 55 54 55 54 54 55 56 58 61 61 59 58 58 59 60 61 60 61 61 62 63 64
MSLP
1009.24 1009.88 1010.42 1010.98 1011.20 1011.22 1011.11 1011.29 1011.38 1011.35 1011.52 1011.62 1011.69 1011.78 1011.84 1011.86 1012.05 1012.25 1012.38 1012.59 1012.73 1012.79 1012.88 1012.83 1012.81 1012.93 1013.02 1013.05 1013.01 1013.07 1013.15 1013.22 1013.29 1013.35 1013.44 1013.61 1013.66 1013.72 1013.86 1013.88 1013.89 1013.94 1014.01
1009.37 1009.85 1010.44 1011.02 1011.45 1011.57 1011.55 1011.75 1011.77 1011.82 1011.89 1011.93 1012.03 1012.15 1012.12 1012.13 1012.19 1012.49 1012.62 1012.65 1012.79 1012.86 1012.95 1013.01 1012.99 1013.07 1013.15 1013.22 1013.21 1013.24 1013.25 1013.33 1013.47 1013.53 1013.63 1013.80 1013.82 1013.87 1013.93 1013.99 1014.04 1014.00 1013.98
1009.77 1009.92 1010.53 1010.88 1011.49 1011.71 1011.81 1011.98 1012.12 1012.14 1012.14 1012.24 1012.42 1012.45 1012.43 1012.45 1012.37 1012.52 1012.69 1012.76 1012.82 1012.95 1013.02 1013.07 1013.12 1013.21 1013.25 1013.30 1013.32 1013.28 1013.30 1013.36 1013.44 1013.55 1013.61 1013.76 1013.74 1013.73 1013.90 1014.05 1014.20 1014.23 1014.18
1010.09 1010.23 1010.48 1010.97 1011.28 1011.47 1011.78 1012.05 1012.34 1012.46 1012.30 1012.32 1012.50 1012.65 1012.72 1012.78 1012.72 1012.66 1012.78 1012.85 1012.78 1012.90 1013.03 1013.09 1013.13 1013.19 1013.29 1013.35 1013.37 1013.30 1013.29 1013.36 1013.43 1013.45 1013.57 1013.64 1013.58 1013.61 1013.83 1014.10 1014.21 1014.33 1014.40
1010.92 1010.79 1010.73 1011.04 1011.35 1011.65 1011.73 1011.91 1012.25 1012.40 1012.51 1012.43 1012.45 1012.63 1012.77 1012.88 1012.88 1012.91 1012.87 1012.94 1012.91 1012.95 1013.00 1013.10 1013.19 1013.21 1013.23 1013.26 1013.29 1013.21 1013.21 1013.25 1013.31 1013.41 1013.60 1013.59 1013.55 1013.64 1013.73 1013.95 1014.17 1014.30 1014.42
1010.89 1010.82 1010.96 1011.33 1011.77 1011.95 1012.26 1012.33 1012.17 1012.22 1012.30 1012.33 1012.46 1012.39 1012.52 1012.75 1012.88 1012.89 1012.92 1012.86 1012.89 1012.89 1012.89 1012.90 1012.95 1013.02 1013.10 1013.19 1013.16 1013.11 1013.04 1013.08 1013.07 1013.16 1013.29 1013.35 1013.38 1013.39 1013.56 1013.73 1013.92 1014.13 1014.31
1011.05 1011.67 1011.99 1012.00 1012.39 1012.33 1012.58 1012.75 1012.59 1012.48 1012.39 1012.24 1012.25 1012.37 1012.41 1012.41 1012.45 1012.51 1012.58 1012.73 1012.67 1012.70 1012.75 1012.73 1012.75 1012.75 1012.77 1012.75 1012.81 1012.91 1012.94 1012.97 1013.00 1013.13 1013.13 1013.15 1013.15 1013.23 1013.28 1013.39 1013.59 1013.79 1013.97
1011.27 1011.74 1012.32 1012.38 1012.54 1012.47 1012.52 1012.74 1012.79 1012.68 1012.65 1012.56 1012.39 1012.34 1012.39 1012.45 1012.51 1012.55 1012.53 1012.40 1012.33 1012.39 1012.45 1012.47 1012.54 1012.64 1012.67 1012.64 1012.57 1012.53 1012.53 1012.67 1012.73 1012.94 1012.96 1012.98 1012.85 1012.85 1012.92 1013.07 1013.28 1013.48 1013.59
1011.89 1012.27 1012.46 1012.57 1012.81 1012.73 1012.80 1012.77 1012.80 1012.73 1012.75 1012.74 1012.59 1012.48 1012.34 1012.33 1012.28 1012.31 1012.35 1012.34 1012.28 1012.23 1012.27 1012.29 1012.23 1012.27 1012.29 1012.30 1012.36 1012.36 1012.33 1012.42 1012.53 1012.65 1012.65 1012.57 1012.39 1012.36 1012.41 1012.61 1012.83 1013.06 1013.20
1012.64 1012.83 1012.87 1012.95 1012.71 1012.81 1012.76 1012.61 1012.71 1012.75 1012.75 1012.75 1012.69 1012.62 1012.47 1012.38 1012.18 1012.21 1012.19 1012.02 1011.93 1011.91 1011.99 1012.03 1011.91 1011.87 1011.97 1012.04 1012.02 1012.01 1011.94 1011.93 1012.07 1012.27 1012.32 1012.27 1012.14 1012.01 1011.99 1012.15 1012.35 1012.59 1012.84
1013.95 1013.93 1013.82 1013.64 1013.58 1012.88 1012.93 1012.85 1012.86 1013.00 1012.93 1012.88 1012.71 1012.66 1012.60 1012.37 1012.26 1012.07 1012.07 1011.90 1011.73 1011.63 1011.54 1011.69 1011.74 1011.76 1011.71 1011.66 1011.65 1011.68 1011.69 1011.66 1011.67 1011.65 1011.70 1011.74 1011.87 1011.80 1011.60 1011.67 1011.91 1012.14 1012.38
1014.71 1014.49 1014.27 1013.81 1013.65 1013.45 1013.27 1013.25 1013.28 1013.33 1013.27 1013.14 1012.97 1012.75 1012.69 1012.49 1012.29 1012.13 1011.95 1011.82 1011.60 1011.51 1011.41 1011.33 1011.23 1011.26 1011.36 1011.38 1011.38 1011.34 1011.31 1011.25 1011.38 1011.19 1011.09 1011.02 1011.07 1011.09 1011.12 1011.20 1011.46 1011.68 1011.89
1014.82 1014.72 1014.49 1014.30 1014.16 1014.05 1013.95 1013.77 1013.66 1013.58 1013.39 1013.27 1013.03 1012.79 1012.59 1012.39 1012.20 1012.01 1011.89 1011.81 1011.57 1011.34 1011.15 1011.06 1010.94 1010.87 1010.81 1010.77 1010.87 1011.07 1011.03 1011.07 1010.95 1010.75 1010.53 1010.47 1010.53 1010.45 1010.41 1010.54 1010.86 1011.05 1011.29
1014.72 1014.77 1014.64 1014.49 1014.38 1014.14 1013.95 1013.87 1013.78 1013.68 1013.55 1013.27 1012.98 1012.61 1012.51 1012.34 1012.03 1011.81 1011.70 1011.54 1011.40 1011.13 1010.89 1010.74 1010.55 1010.32 1010.30 1010.19 1010.25 1010.39 1010.39 1010.35 1010.21 1010.23 1010.10 1010.06 1009.97 1009.87 1009.82 1009.85 1010.01 1010.30 1010.53
1014.71 1014.89 1014.84 1014.79 1014.65 1014.51 1014.49 1014.37 1014.18 1014.04 1013.86 1013.68 1013.35 1012.95 1012.61 1012.29 1012.07 1011.67 1011.52 1011.24 1010.96 1010.83 1010.69 1010.60 1010.41 1010.18 1010.05 1009.82 1009.78 1009.97 1009.94 1009.79 1009.64 1009.44 1009.35 1009.35 1009.33 1009.15 1009.13 1009.13 1009.25 1009.62 1010.01
1014.83 1014.93 1014.85 1014.80 1014.74 1014.68 1014.76 1014.67 1014.58 1014.23 1013.91 1013.68 1013.39 1013.07 1012.65 1012.39 1012.05 1011.84 1011.55 1011.22 1010.82 1010.67 1010.34 1010.13 1009.96 1009.75 1009.59 1009.57 1009.51 1009.65 1009.15 1009.04 1008.81 1008.70 1008.70 1008.55 1008.53 1008.43 1008.37 1008.35 1008.50 1008.81 1009.28
1014.52 1014.73 1014.89 1014.90 1014.76 1014.85 1014.79 1014.59 1014.51 1014.30 1014.00 1013.75 1013.45 1012.95 1012.70 1012.30 1011.97 1011.86 1011.64 1011.27 1010.95 1010.50 1010.15 1009.72 1009.45 1009.24 1009.25 1009.16 1008.97 1008.81 1008.65 1008.35 1008.45 1008.09 1008.02 1007.93 1007.87 1007.73 1007.65 1007.68 1007.79 1008.15 1008.62
1014.00 1014.20 1014.13 1014.41 1014.61 1014.67 1014.70 1014.57 1014.41 1014.28 1013.96 1013.59 1013.21 1012.91 1012.55 1012.25 1011.99 1011.83 1011.58 1011.25 1010.79 1010.45 1009.97 1009.67 1009.21 1008.88 1008.76 1008.67 1008.43 1008.36 1008.05 1007.80 1007.71 1007.52 1007.37 1007.33 1007.31 1007.15 1007.10 1007.09 1007.18 1007.27 1007.99
1013.96 1014.03 1014.00 1014.03 1014.09 1014.05 1013.96 1013.79 1013.55 1013.38 1013.29 1013.19 1012.99 1012.76 1012.47 1012.18 1011.88 1011.77 1011.59 1011.24 1010.81 1010.57 1010.17 1009.71 1009.06 1008.81 1008.32 1008.15 1008.10 1007.79 1007.73 1007.58 1007.29 1007.09 1007.01 1006.97 1006.69 1006.65 1006.62 1006.63 1006.70 1007.06 1007.63
1013.99 1013.91 1014.07 1013.95 1013.95 1013.92 1013.83 1013.71 1013.51 1013.25 1012.97 1012.75 1012.54 1012.37 1012.13 1011.95 1011.66 1011.58 1011.37 1011.13 1010.76 1010.53 1010.09 1009.65 1009.24 1008.59 1008.22 1007.60 1007.21 1007.17 1007.02 1007.00 1006.81 1006.69 1006.62 1006.57 1006.35 1006.21 1006.15 1006.21 1006.23 1006.54 1006.53
1014.01 1014.03 1014.05 1013.93 1013.91 1013.98 1014.08 1014.09 1013.95 1013.67 1013.28 1012.92 1012.47 1011.95 1011.85 1011.67 1011.46 1011.33 1011.19 1010.86 1010.51 1010.33 1010.04 1009.65 1009.11 1008.56 1007.82 1007.41 1007.50 1007.02 1006.72 1006.39 1006.39 1006.11 1005.97 1005.99 1006.06 1005.82 1005.73 1005.84 1005.97 1005.97 1006.01
1013.65 1013.67 1013.61 1013.54 1013.58 1013.69 1013.89 1013.68 1013.85 1013.76 1013.38 1013.09 1012.58 1012.05 1011.70 1011.41 1011.17 1011.03 1010.78 1010.47 1010.21 1009.96 1009.65 1009.39 1009.07 1008.58 1007.67 1007.25 1007.46 1007.04 1006.74 1006.13 1005.91 1005.55 1005.58 1005.61 1005.40 1005.35 1005.38 1005.34 1005.34 1005.33 1005.36
1013.43 1013.05 1012.96 1013.21 1013.29 1013.43 1013.60 1013.79 1013.81 1013.75 1013.54 1013.31 1012.91 1012.51 1012.01 1011.53 1011.18 1010.81 1010.49 1010.16 1009.75 1009.57 1009.31 1009.01 1008.78 1008.40 1007.73 1006.91 1006.73 1007.03 1006.75 1006.40 1006.10 1005.38 1005.26 1005.29 1005.23 1005.17 1005.17 1005.02 1005.01 1004.99 1005.14
1012.74 1012.77 1012.91 1013.09 1013.21 1013.34 1013.45 1013.67 1013.94 1014.03 1013.99 1013.43 1013.07 1012.45 1011.89 1011.34 1010.76 1010.22 1009.89 1009.64 1009.34 1009.05 1008.69 1008.47 1008.19 1008.04 1007.80 1007.04 1006.49 1005.98 1005.92 1005.62 1006.11 1005.63 1005.05 1004.90 1005.00 1005.06 1005.00 1004.95 1004.91 1004.84 1004.72
1013.07 1012.99 1012.96 1013.15 1013.38 1013.42 1013.75 1014.06 1014.31 1014.19 1013.95 1013.23 1012.61 1012.05 1011.43 1010.73 1010.16 1009.66 1009.27 1008.92 1008.63 1008.48 1008.19 1007.88 1007.74 1007.65 1007.43 1007.19 1006.65 1006.09 1005.61 1005.40 1005.43 1005.81 1005.24 1004.87 1004.88 1004.90 1004.82 1004.77 1004.70 1004.73 1004.70
1013.21 1013.35 1013.42 1013.62 1013.91 1014.02 1014.02 1014.12 1014.25 1014.13 1013.74 1013.25 1012.55 1011.75 1010.90 1010.05 1009.41 1008.94 1008.52 1008.17 1007.88 1007.71 1007.53 1007.29 1007.07 1006.95 1006.80 1006.52 1006.20 1005.86 1005.34 1005.06 1004.80 1004.93 1005.19 1005.01 1004.99 1004.78 1004.80 1004.74 1004.69 1004.51 1004.61
Wind_Speed
6 6 4 2 1 3 7 9 11 14 13 13 13 12 12 14 14 13 13 12 11 10 9 9 9 8 8 8 10 11 10 11 11 12 11 10 9 9 10 10 11 8 12
9 7 7 5 3 3 6 7 8 10 11 12 13 12 11 11 12 10 10 10 10 10 9 8 8 7 7 8 8 9 10 10 9 10 9 8 8 8 9 9 9 7 11
5 7 6 8 5 5 6 6 7 8 10 10 10 10 10 10 11 10 9 8 9 9 8 8 7 6 7 7 8 9 10 10 9 9 9 4 5 10 9 8 8 9 10
3 5 7 8 8 8 7 7 6 7 9 10 10 9 9 8 8 9 8 7 8 8 7 7 7 7 7 8 8 8 9 10 10 11 5 5 5 8 9 8 8 8 8
2 4 6 9 8 7 9 9 8 7 8 9 10 9 8 8 7 6 6 5 6 6 6 6 5 5 6 7 7 7 8 9 10 9 5 5 4 7 10 10 9 9 9
5 3 6 6 4 5 5 6 9 9 10 10 10 11 10 9 7 7 7 7 7 7 7 7 7 6 7 7 7 7 7 7 9 5 5 6 6 8 12 12 12 11 10
8 7 7 7 4 3 2 4 5 7 8 10 11 11 11 11 12 11 11 10 10 10 10 9 9 9 9 9 9 9 8 9 5 5 5 5 6 12 15 15 15 14 12
11 8 6 6 5 2 1 3 5 5 6 7 8 10 10 11 11 10 11 12 12 11 11 11 10 10 10 10 11 10 10 11 7 6 6 5 9 11 18 17 16 16 15
10 8 5 5 5 2 2 3 4 5 6 7 7 8 10 10 11 11 11 11 11 11 12 12 12 12 12 12 12 11 11 12 6 4 7 5 12 13 18 19 18 18 16
11 10 9 6 6 5 3 4 4 5 6 7 8 9 9 10 11 12 12 12 13 13 14 14 14 14 13 13 13 13 13 15 7 6 5 5 11 13 16 20 20 19 18
8 7 6 6 5 5 1 3 4 6 7 8 7 9 8 4 6 9 11 14 15 15 15 15 15 14 14 14 15 14 15 4 6 5 4 12 14 16 15 20 21 20 19
6 7 6 8 9 8 8 6 5 5 4 5 5 6 5 5 5 8 11 15 15 16 16 16 16 16 14 7 5 12 6 5 4 6 4 15 16 17 16 19 21 21 21
4 5 6 7 7 7 6 4 3 3 3 3 5 6 5 5 4 4 3 4 4 10 7 9 9 8 9 7 6 5 6 5 5 6 8 14 16 18 17 19 22 23 23
7 5 4 5 6 7 4 4 4 4 4 5 7 8 4 3 5 5 4 5 4 5 7 6 6 8 9 9 9 8 8 7 6 5 8 15 17 19 19 20 23 25 24
7 4 4 4 4 4 5 4 5 5 4 5 5 6 5 5 5 4 5 5 5 4 5 5 7 7 8 9 8 9 10 10 10 6 5 16 18 19 20 21 24 25 25
6 5 4 4 4 2 1 1 3 3 5 4 4 5 7 4 5 4 5 6 7 6 5 6 8 9 9 5 7 10 11 10 10 9 7 7 16 18 19 20 23 25 26
7 8 8 7 5 5 4 3 2 3 3 4 4 5 6 6 6 5 4 4 6 6 8 7 8 6 5 6 10 9 9 10 9 9 8 6 6 14 18 18 22 24 25
5 5 4 4 6 6 5 4 3 3 2 2 4 4 5 5 6 5 5 5 6 7 7 6 6 7 8 7 8 8 7 6 8 9 8 7 6 6 10 17 20 23 25
7 7 4 3 3 2 2 2 2 2 1 1 2 3 5 5 4 5 4 5 6 5 6 6 8 7 7 6 6 7 6 5 6 7 8 7 8 8 5 11 19 23 23
7 6 4 4 5 4 3 4 3 3 4 3 3 3 5 4 5 4 4 5 4 5 6 6 8 6 7 10 7 7 5 6 4 5 8 7 5 7 7 7 7 11 19
6 4 6 6 6 4 2 2 3 4 3 3 4 5 5 5 6 5 4 5 5 4 6 7 7 7 5 6 3 6 5 7 7 7 7 5 6 6 6 8 6 6 8
4 8 9 8 6 5 3 3 2 3 4 4 4 6 6 6 6 6 6 5 6 5 5 5 5 5 4 4 4 1 4 5 4 6 4 6 8 3 6 7 7 9 8
7 9 8 7 7 5 5 1 2 2 3 3 4 4 5 7 7 7 7 6 7 5 5 5 5 5 6 4 6 4 1 5 3 1 3 3 3 2 4 5 7 6 6
9 5 4 5 4 3 2 2 2 2 3 3 3 4 6 8 11 11 10 7 7 5 6 5 4 3 5 8 3 5 6 3 4 7 2 1 2 2 3 3 4 5 5
5 6 3 3 1 3 5 4 3 4 3 4 4 8 11 10 10 11 12 10 6 5 7 6 5 5 4 6 6 4 4 4 4 5 9 3 2 1 3 3 4 4 4
5 3 3 2 5 7 6 5 4 6 8 6 9 10 10 9 9 10 10 8 8 7 7 6 6 7 7 7 6 8 7 4 4 4 6 5 4 4 3 3 4 4 2
Wind_Direction
161 150 120 161 35 62 83 94 104 110 107 103 100 100 104 110 115 121 124 127 129 129 131 130 123 124 128 126 125 128 133 135 140 144 147 145 141 143 136 134 133 134 128
104 132 133 142 144 109 89 89 104 110 113 114 115 117 114 114 115 116 121 126 128 132 135 136 134 139 143 145 147 145 146 148 155 154 154 148 151 148 150 148 144 147 137
82 128 137 135 154 139 116 111 115 120 118 116 116 116 117 120 122 123 124 125 132 141 142 146 153 161 165 166 167 164 162 163 166 165 162 160 168 173 156 155 156 153 148
160 148 126 150 164 160 147 138 133 134 129 128 126 126 125 126 133 135 136 140 147 158 167 170 172 178 186 187 186 179 177 180 180 179 172 184 195 177 181 173 170 172 167
126 111 130 156 169 170 161 149 149 148 146 143 143 141 143 148 148 150 150 157 169 179 184 192 201 205 209 208 203 196 189 191 195 198 197 204 217 187 186 186 190 190 189
70 126 156 143 163 159 167 170 165 167 167 163 164 162 165 170 175 176 184 187 197 203 206 209 212 219 232 240 232 223 212 210 210 220 212 220 212 200 199 199 199 200 202
81 44 25 53 48 53 227 223 203 189 184 179 178 181 183 185 187 192 197 208 212 217 222 223 223 222 227 232 237 239 233 227 217 231 241 238 228 208 207 206 205 206 205
79 79 61 58 46 44 254 250 242 225 210 207 199 196 198 202 206 211 215 214 216 221 226 228 226 231 236 239 241 240 237 235 235 215 234 238 242 231 218 209 206 210 213
55 56 49 42 3 350 279 253 252 245 252 247 233 224 218 219 218 219 223 229 230 230 232 232 232 233 233 236 242 247 250 251 236 227 236 234 240 239 228 215 208 208 208
45 40 28 12 358 301 259 254 256 261 260 257 256 251 245 242 236 239 235 233 235 238 240 239 235 234 237 240 239 241 245 251 247 238 232 241 249 250 240 219 211 207 208
42 35 24 25 342 347 333 329 309 305 294 281 276 268 263 256 258 250 247 245 244 242 240 243 247 249 248 246 244 243 248 237 231 232 226 241 249 257 251 223 215 209 207
46 28 12 24 23 22 36 28 11 332 323 313 296 282 278 271 264 263 262 261 256 252 251 248 243 243 248 247 250 251 243 242 234 247 234 239 242 247 245 226 219 212 211
111 72 35 34 31 36 24 15 16 352 342 316 306 290 288 287 276 266 274 272 270 262 255 256 254 243 239 234 239 230 238 244 246 252 254 242 233 244 242 228 220 214 213
87 92 67 57 50 31 24 22 9 10 355 352 339 324 300 286 279 273 257 266 262 263 259 245 242 241 236 233 234 234 229 235 236 244 253 247 237 241 242 233 221 216 213
117 117 104 92 74 65 43 4 356 356 352 332 334 327 324 309 296 288 285 276 274 264 252 259 253 249 242 236 236 236 243 240 243 240 245 249 240 239 242 237 224 219 216
154 161 169 160 159 145 126 324 318 331 329 340 336 338 343 329 312 299 290 290 288 282 272 255 253 253 245 234 234 243 240 240 238 235 239 242 242 240 242 239 227 220 219
166 164 173 170 179 172 182 194 233 294 339 338 324 329 332 341 337 326 312 296 289 287 279 267 253 246 243 237 237 235 239 239 241 241 236 241 246 245 245 232 226 222 220
142 165 180 157 163 171 177 185 184 202 233 292 323 328 332 336 343 352 340 333 331 318 307 285 272 255 248 234 243 243 245 236 240 242 248 240 239 244 245 231 222 218 221
184 181 208 238 265 278 312 323 323 312 268 273 299 312 322 326 330 342 320 319 325 319 321 300 293 256 250 237 239 247 243 249 243 254 245 235 230 230 220 231 227 222 226
204 184 205 215 244 265 302 321 312 317 313 310 300 284 298 301 307 323 305 302 307 314 316 319 311 290 254 264 250 255 241 246 240 236 251 249 223 225 224 223 223 237 235
226 196 214 210 222 203 241 258 297 275 292 290 297 295 297 281 285 292 283 297 304 302 294 302 302 299 295 258 243 244 245 233 237 243 241 241 245 226 212 224 222 221 232
208 220 229 220 210 211 205 220 217 251 274 272 286 299 296 297 295 289 286 279 279 289 292 289 298 296 264 238 264 184 289 277 238 230 219 234 238 235 226 220 218 220 227
232 230 232 218 210 220 226 310 302 293 299 312 309 301 304 311 294 276 261 263 274 257 260 269 276 275 285 282 212 216 205 232 334 242 240 248 276 257 253 246 232 228 222
240 271 253 210 207 241 250 263 270 268 273 252 264 266 290 293 291 286 277 254 244 259 267 237 260 265 299 300 295 219 251 183 208 293 269 176 150 187 209 249 244 231 195
333 294 245 170 219 319 8 10 337 316 279 281 288 294 298 284 270 272 276 273 256 246 262 265 251 248 243 268 287 296 244 229 229 198 275 258 25 273 238 238 247 248 220
339 25 94 78 36 23 24 8 338 312 302 295 298 294 289 286 287 273 264 266 271 264 257 253 255 255 250 248 247 259 245 221 200 187 225 261 218 237 233 246 250 250 269